PulseSat

PulseSat

2018-107A

Last updated on Jan. 19, 2019, 12:02 a.m. UTC

1 43867U 18107A   19018.58947833 -.00000114  00000-0  00000+0 0  9997
2 43867   0.1296 276.1283 0004479 290.7177 203.0651  1.00204550   299
UTC
Height (km)
Latitude
Longitude
Inclination
Orbital Period

Next 30 passes for location: Hong Kong

Rise time Rise Azimuth (degrees) Set time Set Azimuth (degrees) Duration Max altitude (degrees)

No matching passes for this satellites

PulseSat

PulseSat is the new satellites software and hardware trackering solution by Pulsely.
Satellite Two Line Element Set source: US Air Force Space Command

Download PulseSat for iOS
© 2017 Pulsely Limited